Powrót do katalogu

STARLINK-4584

AktywnyŁącznośćVLEO
NORAD 53571·PAYLOAD·🇺🇸 United States

Wystrzelony Aug 19, 2022 z Cape Canaveral Space Force Station

Loading…

Następne Przeloty (najbliższe 24 godziny)

TLE

ŚwieżeSource: CelesTrak SupGP

Epoka: Sep 14, 2026, 21:16 UTC

1 53571C 22101AW  26257.88659722  .00042222  00000+0  12474-2 0  2574
2 53571  53.1561 270.1758 0001185  96.5269  18.3962 15.34369633    19

Śledź STARLINK-4584 w czasie rzeczywistym z AllMySat

Download on the App Store